Bismarck, ND

7:03 AM CDT on May 24, 2017 (GMT -0500)
Bismarck Municipal

Weather History for KBIS - July, 2012

Change the Weather History Date:

Thursday, July 19, 2012

  Actual Average Record
Temperature  
Mean Temperature 86 °F 72 °F  
Max Temperature 104 °F 86 °F 104 °F (2012)
Min Temperature 67 °F 58 °F 44 °F (1973)
Degree Days  
Heating Degree Days 0 0  
Month to date heating degree days 0 13  
Since 1 June heating degree days 33 106  
Since 1 July heating degree days 0 13  
Cooling Degree Days 21 7  
Month to date cooling degree days 210 116  
Year to date cooling degree days 319 216  
Since 1 June cooling degree days 314 199  
Growing Degree Days 35 (Base 50)    
Moisture  
Dew Point 62 °F    
Average Humidity 56    
Maximum Humidity 93    
Minimum Humidity 19    
Precipitation  
Precipitation 0.08 in 0.09 in 1.20 in (1980)
Month to date precipitation 1.82 1.85  
Year to date precipitation 8.97 10.49  
Snow  
Snow 0.00 in 0.00 in 0.00 in (2002)
Month to date snowfall 0.0 0.0  
Since 1 June snowfall 0.0 0.0  
Since 1 July snowfall 0.0 0.0  
Snow Depth 0.00 in    
Sea Level Pressure  
Sea Level Pressure 29.88 in    
Wind  
Wind Speed 10 mph (SE)    
Max Wind Speed 31 mph    
Max Gust Speed 45 mph    
Visibility 10 miles    
Events      
T = Trace of Precipitation, MM = Missing Value Source: NWS Daily Summary

Daily Weather History Graph

Daily Weather History Graph

Search for Another Location

Airport or City:

Trip Planner

Search our weather history database for the weather conditions in past years. The results will help you decide how hot, cold, wet, or windy it might be!

Date:

Astronomy

Jul. 19, 2012 Rise Set
Actual Time 6:08 AM CDT 9:29 PM CDT
Civil Twilight 5:31 AM CDT 10:06 PM CDT
Nautical Twilight 4:42 AM CDT 10:54 PM CDT
Astronomical Twilight 3:40 AM CDT 11:56 PM CDT
Moon 6:51 AM CDT (7/19) 9:28 PM CDT (7/19)
Length of Visible Light 16h 34m
Length of Day
15h 20m
New Moon, 0% of the Moon is Illuminated
Jul 19
New Moon
Jul 26
First Quarter
Aug 1
Full
Aug 9
Last Quarter
Aug 17
New

Hourly Weather History & Observations

Time (CDT) Temp. Heat Index Dew Point Humidity Pressure Visibility Wind Dir Wind Speed Gust Speed Precip Events Conditions
12:52 AM 73.0 °F - 66.0 °F 79% 29.87 in 10.0 mi ESE 3.5 mph - N/A   Clear
1:52 AM 73.0 °F - 66.9 °F 81% 29.88 in 10.0 mi East 4.6 mph - N/A   Clear
2:52 AM 70.0 °F - 66.9 °F 90% 29.89 in 10.0 mi ESE 6.9 mph - N/A   Clear
3:52 AM 69.1 °F - 66.9 °F 93% 29.89 in 10.0 mi SSE 3.5 mph - N/A   Clear
4:52 AM 69.1 °F - 66.0 °F 90% 29.89 in 10.0 mi Calm Calm - N/A   Clear
5:52 AM 66.9 °F - 64.9 °F 93% 29.89 in 10.0 mi NE 3.5 mph - N/A   Clear
6:52 AM 69.1 °F - 66.9 °F 93% 29.90 in 9.0 mi ENE 5.8 mph - N/A   Clear
7:52 AM 73.0 °F - 68.0 °F 84% 29.90 in 10.0 mi ENE 5.8 mph - N/A   Clear
8:52 AM 79.0 °F - 66.9 °F 66% 29.90 in 10.0 mi ENE 5.8 mph - N/A   Clear
9:52 AM 86.0 °F 88.8 °F 66.9 °F 53% 29.90 in 10.0 mi SSE 6.9 mph - N/A   Clear
10:52 AM 91.9 °F 96.9 °F 69.1 °F 47% 29.89 in 10.0 mi South 6.9 mph - N/A   Clear
11:52 AM 97.0 °F 99.3 °F 64.0 °F 34% 29.88 in 10.0 mi South 11.5 mph - N/A   Clear
12:52 PM 100.0 °F 98.3 °F 55.0 °F 22% 29.89 in 10.0 mi SSW 13.8 mph - N/A   Clear
1:52 PM 100.9 °F 98.7 °F 53.1 °F 20% 29.88 in 10.0 mi South 18.4 mph 29.9 mph N/A   Clear
2:52 PM 102.0 °F 100.1 °F 54.0 °F 20% 29.88 in 10.0 mi South 15.0 mph 24.2 mph N/A   Clear
3:52 PM 102.0 °F 100.1 °F 54.0 °F 20% 29.87 in 10.0 mi SSW 13.8 mph 24.2 mph N/A   Clear
4:52 PM 100.0 °F - 51.1 °F 19% 29.86 in 10.0 mi South 15.0 mph - N/A   Clear
5:52 PM 100.0 °F - 51.1 °F 19% 29.84 in 10.0 mi South 17.3 mph - N/A   Clear
6:52 PM 97.0 °F 95.7 °F 57.0 °F 26% 29.83 in 10.0 mi South 13.8 mph - N/A   Clear
7:52 PM 97.0 °F 96.5 °F 59.0 °F 28% 29.84 in 10.0 mi South 10.4 mph - N/A   Clear
8:52 PM 89.1 °F 89.0 °F 61.0 °F 39% 29.86 in 10.0 mi ENE 8.1 mph - N/A   Clear
9:52 PM 87.1 °F 87.5 °F 62.1 °F 43% 29.87 in 10.0 mi ENE 12.7 mph - N/A   Clear
10:52 PM 82.0 °F 83.1 °F 63.0 °F 52% 29.89 in 10.0 mi East 5.8 mph - N/A   Clear
11:52 PM 82.0 °F 83.1 °F 63.0 °F 52% 29.89 in 10.0 mi ENE 12.7 mph - N/A   Clear